Date String (YYYY-MM-DD hh:mm:ss) UTC,Instrument flags,Ambient pressure (hPa),Sample flow (lpm),Bypass flow (lpm),Sample temperature (°C),Ambient temperature (°C),ASC tube jacket temperature (°C),LED temperature (°C),Box temperature (°C),Sample RH (%),Span deviation,Mass concentration (μg/m³),Mass concentration (μg/m³),Mass concentration (μg/m³)
DateTimeUTC,F1_M11,P_M11,Q1_M11,Q2_M11,T1_M11,T2_M11,T3_M11,T4_M11,T5_M11,U1_M11,ZSPAN_M11,X0_M11,X2_M11,X1_M11
2022-03-23 19:00:00,,0827.0,4.99,0.00,22.2,21.6,00.0,31.1,24.0,06.0,0000.0,0007.15,0001.79,0000.64
2022-03-23 19:01:00,,0826.9,5.00,0.00,22.2,21.6,00.0,31.1,24.0,06.1,0000.0,0007.27,0001.77,0000.63
2022-03-23 19:02:00,,0826.9,5.00,0.00,22.2,21.6,00.0,31.1,24.0,06.1,0000.0,0007.41,0001.76,0000.62
2022-03-23 19:03:00,,0826.8,5.00,0.00,22.2,21.6,00.0,31.1,24.1,06.3,0000.0,0007.28,0001.70,0000.61
2022-03-23 19:04:00,,0826.8,5.01,0.00,22.3,21.6,00.0,31.1,24.1,06.3,0000.0,0007.14,0001.67,0000.61
2022-03-23 19:05:00,,0826.8,5.00,0.00,22.3,21.6,00.0,31.2,24.1,06.3,0000.0,0004.16,0001.30,0000.59
2022-03-23 19:06:00,,0826.8,5.00,0.00,22.3,21.6,00.0,31.2,24.1,06.3,0000.0,0002.69,0001.05,0000.57
2022-03-23 19:07:00,,0826.8,5.00,0.00,22.3,21.6,00.0,31.2,24.1,06.3,0000.0,0002.31,0000.98,0000.56
2022-03-23 19:08:00,,0826.9,4.99,0.00,22.3,21.7,00.0,31.2,24.1,06.2,0000.0,0002.36,0000.98,0000.56
2022-03-23 19:09:00,,0826.8,5.00,0.00,22.3,21.7,00.0,31.2,24.1,06.2,0000.0,0002.55,0001.02,0000.56
2022-03-23 19:10:00,,0826.8,5.00,0.00,22.3,21.6,00.0,31.2,24.1,06.2,0000.0,0002.55,0000.99,0000.56
2022-03-23 19:11:00,,0826.8,5.00,0.00,22.3,21.5,00.0,31.2,24.0,06.2,0000.0,0002.38,0000.92,0000.56
2022-03-23 19:12:00,,0826.8,4.99,0.00,22.2,21.5,00.0,31.2,24.0,06.1,0000.0,0002.11,0000.91,0000.57
2022-03-23 19:13:00,,0826.9,5.00,0.00,22.3,21.5,00.0,31.2,24.0,06.0,0000.0,0001.98,0000.93,0000.57
2022-03-23 19:14:00,,0826.8,5.00,0.00,22.3,21.6,00.0,31.2,24.0,06.0,0000.0,0002.10,0000.98,0000.59
2022-03-23 19:15:00,,0826.8,5.00,0.00,22.3,21.6,00.0,31.2,24.1,06.1,0000.0,0002.13,0001.00,0000.59
2022-03-23 19:16:00,,0826.9,5.00,0.00,22.3,21.6,00.0,31.2,24.1,06.1,0000.0,0002.10,0000.99,0000.59
2022-03-23 19:17:00,,0826.7,4.99,0.00,22.3,21.7,00.0,31.2,24.1,06.1,0000.0,0002.10,0001.02,0000.59
2022-03-23 19:18:00,,0826.7,5.00,0.00,22.3,21.7,00.0,31.3,24.1,06.1,0000.0,0002.54,0001.05,0000.59
2022-03-23 19:19:00,,0826.7,5.00,0.00,22.4,21.7,00.0,31.3,24.2,06.0,0000.0,0002.83,0001.03,0000.59
2022-03-23 19:20:00,,0826.7,5.00,0.00,22.4,21.7,00.0,31.3,24.1,06.0,0000.0,0002.71,0001.01,0000.60
2022-03-23 19:21:00,,0826.7,5.00,0.00,22.4,21.7,00.0,31.3,24.2,06.0,0000.0,0002.70,0001.04,0000.61
2022-03-23 19:22:00,,0826.6,4.98,0.00,22.4,21.8,00.0,31.3,24.2,06.0,0000.0,0002.74,0001.05,0000.61
2022-03-23 19:23:00,,0826.6,5.01,0.00,22.4,21.8,00.0,31.3,24.2,05.9,0000.0,0002.76,0001.06,0000.61
2022-03-23 19:24:00,,0826.6,5.00,0.00,22.4,21.8,00.0,31.3,24.2,05.8,0000.0,0002.69,0001.02,0000.60
2022-03-23 19:25:00,,0826.7,5.00,0.00,22.4,21.8,00.0,31.3,24.2,05.9,0000.0,0002.58,0000.97,0000.59
2022-03-23 19:26:00,,0826.6,5.00,0.00,22.4,21.8,00.0,31.3,24.2,06.0,0000.0,0002.51,0000.94,0000.59
2022-03-23 19:27:00,,0826.7,5.00,0.00,22.5,21.8,00.0,31.3,24.3,06.1,0000.0,0002.67,0000.98,0000.59
2022-03-23 19:28:00,,0826.7,5.00,0.00,22.5,21.8,00.0,31.4,24.3,06.1,0000.0,0002.76,0000.96,0000.58
2022-03-23 19:29:00,,0826.7,4.98,0.00,22.5,21.8,00.0,31.4,24.3,06.2,0000.0,0002.56,0000.91,0000.58
2022-03-23 19:30:00,,0826.7,5.00,0.00,22.5,21.8,00.0,31.4,24.3,06.3,0000.0,0001.80,0000.92,0000.57
2022-03-23 19:31:00,,0826.8,5.01,0.00,22.5,21.9,00.0,31.4,24.3,06.4,0000.0,0001.81,0000.93,0000.57
2022-03-23 19:32:00,,0826.7,5.01,0.00,22.6,21.9,00.0,31.4,24.4,06.4,0000.0,0001.78,0000.92,0000.57
2022-03-23 19:33:00,,0826.8,5.00,0.00,22.6,21.9,00.0,31.4,24.4,06.3,0000.0,0001.74,0000.91,0000.57
2022-03-23 19:34:00,,0826.9,5.00,0.00,22.6,21.9,00.0,31.4,24.3,06.1,0000.0,0001.75,0000.92,0000.58
2022-03-23 19:35:00,,0826.8,5.00,0.00,22.6,21.9,00.0,31.4,24.3,06.1,0000.0,0001.77,0000.94,0000.60
2022-03-23 19:36:00,,0826.8,5.00,0.00,22.6,21.9,00.0,31.5,24.3,06.1,0000.0,0001.88,0000.97,0000.61
2022-03-23 19:37:00,,0826.8,4.99,0.00,22.6,21.9,00.0,31.5,24.4,06.2,0000.0,0001.91,0000.99,0000.61
2022-03-23 19:38:00,,0826.8,5.01,0.00,22.6,21.9,00.0,31.5,24.4,06.1,0000.0,0001.72,0000.95,0000.61
2022-03-23 19:39:00,,0826.7,5.00,0.00,22.6,22.0,00.0,31.5,24.4,06.3,0000.0,0001.58,0000.94,0000.61
2022-03-23 19:40:00,,0826.6,5.00,0.00,22.6,22.0,00.0,31.5,24.5,06.2,0000.0,0001.67,0000.94,0000.62
2022-03-23 19:41:00,,0826.7,5.00,0.00,22.6,22.0,00.0,31.5,24.5,06.0,0000.0,0001.62,0000.92,0000.62
2022-03-23 19:42:00,,0826.6,5.00,0.00,22.7,22.1,00.0,31.5,24.5,06.0,0000.0,0001.57,0000.90,0000.61
2022-03-23 19:43:00,,0826.6,4.99,0.00,22.7,22.1,00.0,31.6,24.5,06.0,0000.0,0001.57,0000.90,0000.62
2022-03-23 19:44:00,,0826.7,5.01,0.00,22.7,22.0,00.0,31.6,24.5,06.0,0000.0,0001.62,0000.88,0000.61
2022-03-23 19:45:00,,0826.7,5.00,0.00,22.7,22.0,00.0,31.6,24.5,05.9,0000.0,0001.67,0000.86,0000.60
2022-03-23 19:46:00,,0826.6,5.00,0.00,22.7,22.1,00.0,31.6,24.5,06.0,0000.0,0001.74,0000.89,0000.60
2022-03-23 19:47:00,,0826.6,5.00,0.00,22.7,22.1,00.0,31.6,24.6,06.2,0000.0,0001.68,0000.87,0000.60
2022-03-23 19:48:00,,0826.6,4.99,0.00,22.7,22.1,00.0,31.6,24.6,06.2,0000.0,0001.57,0000.82,0000.59
2022-03-23 19:49:00,,0826.5,5.00,0.00,22.7,22.1,00.0,31.6,24.6,06.2,0000.0,0001.59,0000.82,0000.59
2022-03-23 19:50:00,,0826.5,5.00,0.00,22.8,22.1,00.0,31.6,24.6,06.2,0000.0,0001.56,0000.80,0000.58
2022-03-23 19:51:00,,0826.6,5.01,0.00,22.8,22.1,00.0,31.6,24.6,06.1,0000.0,0001.54,0000.82,0000.58
2022-03-23 19:52:00,,0826.5,5.00,0.00,22.8,22.1,00.0,31.7,24.6,06.2,0000.0,0001.51,0000.81,0000.58
2022-03-23 19:53:00,,0826.5,4.99,0.00,22.8,22.1,00.0,31.7,24.6,06.0,0000.0,0001.67,0000.85,0000.58
2022-03-23 19:54:00,,0826.5,5.00,0.00,22.8,22.1,00.0,31.7,24.6,05.8,0000.0,0001.66,0000.85,0000.57
2022-03-23 19:55:00,,0826.5,4.99,0.00,22.8,22.1,00.0,31.7,24.6,05.7,0000.0,0001.62,0000.85,0000.56
2022-03-23 19:56:00,,0826.5,5.00,0.00,22.8,22.2,00.0,31.7,24.6,05.8,0000.0,0001.58,0000.88,0000.56
2022-03-23 19:57:00,,0826.5,5.01,0.00,22.8,22.2,00.0,31.7,24.6,05.9,0000.0,0001.57,0000.88,0000.55
2022-03-23 19:58:00,,0826.5,4.99,0.00,22.8,22.2,00.0,31.7,24.7,06.0,0000.0,0001.63,0000.90,0000.54
2022-03-23 19:59:00,,0826.5,5.00,0.00,22.9,22.2,00.0,31.7,24.7,06.1,0000.0,0001.70,0000.92,0000.54
